Das Wetter in  D-61279 Heinzenberg / Taunus





Wetter Minimum- & Maximum-Werte im April 2016

Standort: Heinzenberg / Taunus - Höhe 297 m         8° 24' 1" Ost 50° 21' 51" Nord
(   3-stündige Aktualisierung    letzte Aktualisierung um 20:46 am 30.04.2016  )


Messgrösse

Minimum

Maximum

Durchschnitt

Temperatur West /
Luftfeuchte West
Anklicken für Monats-Diagramm

-1,2 °C

07:17
08.04.2016

28 %

17:13
20.04.2016

23,8 °C

17:20
21.04.2016

91 %

08:58
04.04.2016

Temp

8,4 °C

Feuchte

69 %

Temperatur Ost /
Luftfeuchte Ost
Anklicken für Monats-Diagramm

-1,0 °C

06:57
08.04.2016

--

--
--

23,9 °C

17:15
21.04.2016

--

--
--

8,6 °C

--

Luftdruck Anklicken für Monats-Diagramm

1000,5 hPa

15:59
26.04.2016

1032,4 hPa

08:53
20.04.2016

1012,9 hPa

Taupunkt

-4,2 °C

07:01
18.04.2016

11,2 °C

14:58
03.04.2016

2,6 °C

Windchill
( gefühlte Temperatur )

-14,3 °C

05:50
27.04.2016

23,8 °C

17:20
21.04.2016

6,1 °C

Windgeschwindigkeit /
Windrichtung
Anklicken für Monats-Diagramm

---

58,5 km/h / W-SW

13:03
15.04.2016

8,2 km/h
W-SW

Helligkeit /
Sonnenschein
Anklicken für Monats-Diagramm
Anklicken für Monats-Diagramm

Sonnenschein:

138:16 Stunden

Max: 12:17 Std am
20.04.2016

114,0 klux

14:57
29.04.2016

28 klux

Solarstrahlung Anklicken für Monats-Diagramm

---

780 W/m²

14:57
29.04.2016

205 W/m²

Regenmenge
    April 2016
Anklicken für Monats-Diagramm

Insgesamt 68,9 l/m²

in 77:26 Stunden
an 18 Tagen

16,9 l/m²

01:26
01.04.2016

Gesamtmenge

68,9 l/m²

Regen-Tage
    April 2016
Anklicken für Monats-Diagramm

>   0 mm/Tag

>   2 mm/Tag

>   5 mm/Tag

> 10 mm/Tag

> 20 mm/Tag

18 Tage     
8 Tage     
5 Tage     
2 Tage     
0 Tage     

Eisige Tage April 2016 / 2015

Tmin ≤ -10°C     

0 Tage

/

0 Tage

Eistage April 2016 / 2015

Tmax <     0°C     

0 Tage

/

0 Tage

Frosttage April 2016 / 2015

Tmin ≤     0°C     

7 Tage

/

7 Tage

Kalte Tage April 2016 / 2015

Tmax <   10°C     

3 Tage

/

3 Tage

Warme Tage April 2016 / 2015

Tmax ≥   20°C     

3 Tage

/

11 Tage

Sommertage April 2016 / 2015

Tmax ≥   25°C     

0 Tage

/

2 Tage

Heisse Tage April 2016 / 2015

Tmax ≥   30°C     

0 Tage

/

0 Tage


Monatsdiagramm April 2016

Die Kurven zeigen den Durchschnittswert des jeweiligen Tages an


Wetter-Monatsübersicht April 2016
Datum
  Temperatur
   Luftdruck
   Wind
  Regen
   Luftfeuchte
   Helligkeit

Sonnen-
schein

Ø
Temp.

Min.
Temp.

Max.
Temp.

Ø
Luftdruck

Min.
Luftdruck

Max.
Luftdruck

Ø-Geschw.
Haupt-Richtg.

Max.
Wind

Menge /
Dauer

Ø
Feuchte

Min.
Feuchte

Max.
Feuchte

Ø
Helligkeit

Max.
Helligkeit

1.
April
5,9 °C0,8 °C
03:46
13,7 °C
17:06
1018,4 hPa1011,5 hPa
00:01
1021,9 hPa
23:52
1,6 km/h
O-NO
18,6 km/h
13:11  
16,9 l/m²
6:30 Stunden
78 %56 %
17:11
90 %
04:11
26,6 klux80,6 klux
12:56
3:35 Std 
2.
April
7,6 °C-1,0 °C
06:57
16,1 °C
17:12
1017,8 hPa1013,4 hPa
20:07
1022,2 hPa
02:52
3,0 km/h
O-SO
22,5 km/h
14:22  
---
74 %59 %
17:17
88 %
09:17
29,0 klux68,7 klux
13:07
4:30 Std 
3.
April
12,8 °C7,8 °C
01:27
20,8 °C
15:03
1011,8 hPa1009,2 hPa
22:37
1014,0 hPa
01:27
2,9 km/h
W-SW
26,6 km/h
15:08  
---
15 Minuten
73 %53 %
15:08
84 %
06:13
20,7 klux62,9 klux
14:03
1:00 Std 
4.
April
13,0 °C9,5 °C
23:54
18,0 °C
16:13
1007,8 hPa1006,6 hPa
16:13
1009,5 hPa
05:08
7,7 km/h
W-SW
42,4 km/h
11:33  
3,6 l/m²
4:00 Stunden
77 %55 %
16:13
91 %
08:58
22,8 klux84,9 klux
15:23
2:46 Std 
5.
April
10,4 °C8,0 °C
23:55
13,4 °C
16:24
1007,4 hPa1005,5 hPa
04:59
1011,9 hPa
23:55
4,1 km/h
SW
31,7 km/h
13:19  
11,1 l/m²
12:05 Stunden
87 %80 %
12:44
91 %
08:09
9,4 klux30,9 klux
15:39
--- 
6.
April
10,0 °C5,9 °C
04:40
15,7 °C
15:35
1011,0 hPa1007,3 hPa
22:51
1013,9 hPa
10:50
19,9 km/h
W-SW
49,0 km/h
16:00  
0,2 l/m²
5 Minuten
73 %46 %
15:40
91 %
01:25
26,8 klux83,4 klux
12:15
4:00 Std 
7.
April
8,3 °C3,4 °C
23:57
13,6 °C
15:21
1010,3 hPa1007,4 hPa
00:01
1013,6 hPa
23:57
18,3 km/h
W
43,2 km/h
13:16  
0,9 l/m²
3:00 Stunden
66 %39 %
17:16
85 %
08:01
37,6 klux85,1 klux
13:06
8:10 Std 
8.
April
5,7 °C-1,2 °C
07:17
11,5 °C
16:47
1012,3 hPa1009,5 hPa
18:07
1014,2 hPa
07:17
2,8 km/h
NW
15,5 km/h
16:07  
---
69 %53 %
17:07
86 %
09:17
22,4 klux77,6 klux
12:02
3:00 Std 
9.
April
7,3 °C-1,1 °C
07:18
15,1 °C
13:33
1009,3 hPa1006,9 hPa
13:33
1011,8 hPa
02:52
3,6 km/h
SO
19,7 km/h
17:43  
---
64 %41 %
13:33
85 %
08:48
26,2 klux84,6 klux
12:58
4:41 Std 
10.
April
11,4 °C6,8 °C
08:29
18,2 °C
15:14
1010,9 hPa1009,7 hPa
16:24
1013,0 hPa
23:55
2,8 km/h
O-SO
23,7 km/h
13:44  
---
62 %46 %
15:14
78 %
08:49
27,8 klux79,4 klux
14:29
4:25 Std 
11.
April
11,3 °C2,7 °C
06:35
20,9 °C
17:10
1012,3 hPa1009,4 hPa
17:10
1014,7 hPa
06:35
4,2 km/h
O-SO
21,4 km/h
16:40  
---
61 %37 %
17:20
83 %
08:05
40,0 klux69,8 klux
13:50
11:30 Std 
12.
April
10,4 °C3,9 °C
06:51
18,9 °C
13:46
1010,2 hPa1007,5 hPa
16:21
1012,4 hPa
07:36
3,9 km/h
W-SW
28,1 km/h
16:46  
0,3 l/m²
1:00 Stunden
69 %46 %
13:51
86 %
10:51
24,5 klux85,3 klux
14:16
2:55 Std 
13.
April
7,3 °C2,9 °C
06:56
10,4 °C
15:36
1008,6 hPa1007,5 hPa
15:36
1010,0 hPa
23:57
0,9 km/h
NW
12,5 km/h
16:56  
1,2 l/m²
2:45 Stunden
83 %78 %
00:01
87 %
09:11
10,8 klux26,2 klux
14:56
--- 
14.
April
10,9 °C3,8 °C
07:27
18,8 °C
16:47
1011,5 hPa1010,0 hPa
00:02
1013,4 hPa
08:42
3,5 km/h
NW
21,5 km/h
16:27  
---
68 %40 %
16:51
90 %
09:02
34,8 klux83,5 klux
13:27
7:11 Std 
15.
April
12,4 °C9,5 °C
02:58
17,3 °C
16:23
1005,0 hPa1002,6 hPa
18:28
1010,7 hPa
00:13
18,8 km/h
W-SW
58,5 km/h
13:03  
1,2 l/m²
1:55 Stunden
64 %44 %
18:38
81 %
13:23
32,8 klux85,2 klux
14:48
6:00 Std 
16.
April
11,3 °C8,4 °C
23:50
16,2 °C
17:03
1002,7 hPa1001,3 hPa
04:59
1004,6 hPa
23:55
15,6 km/h
W-SW
44,8 km/h
14:49  
8,5 l/m²
9:20 Stunden
76 %56 %
15:24
86 %
08:14
30,6 klux93,7 klux
12:04
4:35 Std 
17.
April
8,2 °C3,9 °C
23:51
14,4 °C
18:16
1010,3 hPa1004,7 hPa
00:00
1018,7 hPa
23:51
7,2 km/h
NW
29,6 km/h
13:41  
7,3 l/m²
5:15 Stunden
70 %41 %
17:41
89 %
06:40
32,1 klux93,7 klux
12:51
6:05 Std 
18.
April
6,9 °C-1,2 °C
07:01
15,2 °C
15:26
1020,9 hPa1018,7 hPa
00:01
1023,8 hPa
23:57
5,6 km/h
NW
27,6 km/h
18:06  
---
61 %41 %
14:36
83 %
08:51
40,3 klux85,7 klux
15:01
11:06 Std 
19.
April
7,6 °C2,8 °C
03:02
13,0 °C
16:02
1025,7 hPa1023,8 hPa
00:02
1028,9 hPa
23:58
6,1 km/h
NW
24,8 km/h
15:57  
---
66 %53 %
16:47
74 %
03:42
18,1 klux91,1 klux
13:02
45 Min 
20.
April
9,3 °C-0,2 °C
07:03
19,9 °C
16:53
1029,1 hPa1026,1 hPa
18:55
1032,4 hPa
08:53
1,9 km/h
SO
18,4 km/h
16:13  
---
57 %28 %
17:13
85 %
08:48
41,8 klux73,2 klux
13:48
12:17 Std 
21.
April
11,7 °C0,0 °C
07:00
23,8 °C
17:20
1023,3 hPa1017,5 hPa
19:15
1029,0 hPa
01:05
2,4 km/h
SO
21,3 km/h
13:10  
---
52 %28 %
16:15
78 %
08:00
41,4 klux73,7 klux
13:50
11:20 Std 
22.
April
12,2 °C6,7 °C
07:05
19,6 °C
16:20
1016,9 hPa1013,0 hPa
19:00
1020,3 hPa
08:15
2,2 km/h
NO
15,5 km/h
16:35  
---
55 %37 %
16:10
68 %
07:05
32,2 klux77,0 klux
13:50
4:10 Std 
23.
April
7,0 °C2,1 °C
23:47
10,8 °C
00:01
1012,4 hPa1010,6 hPa
18:56
1014,8 hPa
23:47
2,7 km/h
N
27,0 km/h
16:56  
4,6 l/m²
6:55 Stunden
67 %53 %
01:01
82 %
14:21
11,0 klux80,8 klux
15:36
1:10 Std 
24.
April
3,1 °C-0,2 °C
03:37
10,0 °C
16:02
1013,6 hPa1010,7 hPa
16:02
1016,0 hPa
02:07
10,0 km/h
W-NW
38,2 km/h
13:37  
0,3 l/m²
2:00 Stunden
74 %57 %
16:22
83 %
22:38
28,9 klux89,3 klux
13:42
3:40 Std 
25.
April
3,0 °C0,2 °C
02:18
6,8 °C
13:13
1009,7 hPa1001,0 hPa
23:54
1014,0 hPa
02:18
17,1 km/h
W-SW
46,7 km/h
16:03  
9,3 l/m²
10:56 Stunden
81 %62 %
15:48
88 %
23:09
16,5 klux88,4 klux
12:43
35 Min 
26.
April
3,5 °C0,6 °C
06:54
8,4 °C
15:59
1001,9 hPa1000,5 hPa
15:59
1003,3 hPa
23:05
22,6 km/h
W
53,7 km/h
12:34  
2,4 l/m²
5:20 Stunden
77 %54 %
14:19
90 %
05:09
31,1 klux105,0 klux
14:09
5:20 Std 
27.
April
3,8 °C1,4 °C
04:20
6,9 °C
19:05
1006,9 hPa1003,3 hPa
00:00
1012,6 hPa
23:46
27,6 km/h
W
52,7 km/h
10:05  
---
2:50 Stunden
73 %64 %
19:35
82 %
12:10
22 klux101 klux
15:05
25 Min 
28.
April
6,0 °C1,1 °C
04:31
13,3 °C
17:51
1014,5 hPa1012,6 hPa
00:01
1016,7 hPa
23:52
10,6 km/h
W
35,8 km/h
18:11  
---
1:45 Stunden
63 %34 %
18:06
82 %
05:36
37 klux93 klux
13:16
6:40 Std 
29.
April
6,4 °C-0,7 °C
06:27
12,4 °C
17:47
1016,9 hPa1015,6 hPa
18:27
1018,0 hPa
01:27
11,0 km/h
W-SW
36,4 km/h
13:27  
---
60 %42 %
15:17
81 %
07:52
29,4 klux114,0 klux
14:57
2:35 Std 
30.
April
8,4 °C1,7 °C
06:33
15,4 °C
12:28
1016,7 hPa1015,2 hPa
12:28
1019,3 hPa
23:44
6,2 km/h
SO
19,3 km/h
19:43  
1,1 l/m²
1:30 Stunden
65 %48 %
10:58
80 %
08:58
33 klux112 klux
13:58
3:50 Std 



April
2016

Temperatur

  

Luftdruck

  

Wind

  

Regen

  

Luftfeuchte

  

Helligkeit

Sonnen-
schein

Ø

Min

Max

Ø

Min

Max

Ø

Max

Max

Ø

Min

Max

Ø

Max

Max

8,4 °C

-1,2 °C

07:17 Uhr
08.04.2016

23,8 °C

17:20 Uhr
21.04.2016

1012,9 hPa

1000,5 hPa

15:59 Uhr
26.04.2016

1032,4 hPa

08:53 Uhr
20.04.2016

8,2 km/h

W-SW

58,5 km/h

13:03 Uhr
15.04.2016

16,9 l/m²

6:30 Stunden
01.04.2016

69 %

28 %

17:13 Uhr
20.04.2016

91 %

08:58 Uhr
04.04.2016

28 klux

114,0 klux

14:57 Uhr
29.04.2016

12:17 Std

am
20.04.2016

Gesamt

Gesamt

68,9 l/m²

18 Tage
77:26 h

138:16 Std


Wetter-Diagramme April 2016     Heinzenberg / Taunus   
TemperaturLuftfeuchte
SolarstrahlungLuftdruck
HelligkeitSonnenschein
RegenmengeRegendauer
Wind-GeschwindigkeitWind-Richtung